Reflectivity
-20 -20 -12 -20 -20 -20 -15 -20 12 -20 -20 -20 -20 -19 -20 -20 -20 -20 -20 -20 -20 -20 -20 -20 -20 -20 -20 -20 -20 -20 -20 -20 -20 -20 -20 -20 -20 -20 -20 -20 4 15 21 24
-20 -20 -20 -20 -20 -20 -20 -20 -9 -0 -20 -20 -19 -20 -20 -20 -20 -20 -20 -20 -20 -20 -20 -20 -20 -20 -20 -20 -20 -20 -20 -20 -20 -20 -20 -20 -20 -20 -20 -20 -20 -10 9 14
-20 -20 -20 -19 -20 -20 -20 -20 -20 -20 -20 -20 -20 -20 -20 -20 -20 -20 -20 -20 -20 -20 -20 -20 -20 -20 -20 -20 -20 -20 -20 -20 -20 -20 -20 -20 -20 -20 -20 -20 -20 -20 -18 -2
-1 12 2 -20 -20 -20 -20 -20 -20 -20 -20 -20 -20 -19 -20 -20 -20 -20 -20 -20 -20 -20 -20 -20 -20 -20 -20 -20 -20 -20 -20 -20 -20 -20 -20 -20 -20 -20 -20 -20 -20 -20 -20 -20
15 3 -20 -20 -20 -20 -20 -20 -20 -20 -20 -20 -20 -20 -20 -20 -20 -20 -20 -20 -20 -20 -20 -20 -20 -20 -20 -20 -20 -20 -20 -20 -20 -20 -20 -20 -20 -20 -20 -20 -20 -20 -20 -20
21 12 4 -20 -20 -19 -20 -20 -20 -20 -20 -20 -20 -20 -20 -20 -20 -20 -20 -20 -20 -20 -20 -20 -20 -20 -20 -20 -20 -20 -20 -20 -20 -20 -20 -20 -20 -20 -20 -20 -20 -20 -20 -20
16 13 -11 -17 -20 -16 -20 -20 -20 -20 -20 -20 -20 -20 -20 -20 -20 -20 -20 -20 -20 -20 -20 -20 -20 -20 -20 -20 -20 -20 -20 -20 -20 -20 -20 -20 -20 -20 -20 -20 -20 -20 -11 -18
11 16 -20 -10 -20 -20 -20 -20 -20 -20 -20 -20 -20 -20 -20 -20 -20 -20 -20 -20 -20 -20 -20 -20 -20 -20 -20 -20 -20 -20 -20 -20 -20 -20 -20 -20 -20 -20 -20 -20 -20 -20 -20 -2
-20 -20 -20 -20 -20 -20 -20 -20 -20 -20 -20 -20 -20 -20 -20 -20 -20 -20 -20 -20 -20 -20 -20 -20 -20 -20 -20 -20 -20 -20 -20 -20 -20 -20 -20 -20 -20 -20 -20 -20 -20 -20 -20 -20
-14 -20 -20 -20 -20 -20 -20 -20 -20 -20 -20 -20 -20 -20 -20 -20 -20 -20 -20 -20 -20 -20 -20 -20 -20 -20 -10 -20 -20 -20 -20 -20 -20 -20 -20 -20 -20 -20 -20 -20 -20 -20 -20 -20
-20 -20 -20 -20 -20 -20 -20 -20 -20 -20 -20 -20 -20 -20 -20 -20 -20 -20 -20 -20 -20 -20 -20 -20 -20 -20 -20 -20 -20 -20 -20 -20 -20 -20 -20 -20 -20 -20 -20 -13 -20 -20 -20 -20
-20 -20 -20 -20 -20 -20 -20 -20 -20 -20 -20 -20 -20 -20 -20 -20 -20 -20 -20 -20 -20 -20 -20 -20 -20 -20 -20 -20 -20 -20 -20 -20 -20 -20 -20 -20 -20 -20 -20 -20 -20 -20 -20 -20
-20 -20 -20 -20 -20 -20 -20 -20 -20 -20 -20 -20 -20 -20 -20 -20 -20 -20 -20 -20 -20 -20 -20 -20 -20 -20 -20 -20 -20 -20 -20 -20 -20 -20 -20 -20 -20 -20 -20 -20 -20 -20 -20 -20
-20 -20 -20 -20 -20 -20 -20 -20 -20 -20 -20 -20 -20 -20 -20 -20 -20 -20 -20 -20 -20 -20 -20 -20 -20 -20 -20 -20 -20 -20 -20 -20 -20 -20 -20 -20 -20 -20 -20 -20 -20 -20 -20 -20
-20 -20 -20 -20 -20 -20 -20 -20 -20 -20 -20 -20 -20 -20 -20 -20 -20 -20 -20 -20 -20 -20 -20 -20 -20 -20 -20 -20 -20 -20 -20 -20 -20 -20 -20 -20 -20 -20 -20 -20 -20 -20 -20 -20
-20 -20 -20 -20 -20 -20 -20 -20 -20 -20 -20 -20 -20 -20 -20 -20 -20 -20 -20 -20 -20 -20 -20 -20 -20 -20 -20 -20 -20 -20 -20 -20 -20 -20 -20 -20 -20 -20 -20 -20 -20 -20 -20 -20
-20 -20 -20 -20 -20 -20 -20 -20 -20 -20 -20 -20 -20 -20 -20 -20 -20 -20 -20 -20 -20 -20 -20 -20 -20 -20 -20 -20 -20 -20 -20 -20 -20 -20 -20 -20 -20 -20 -20 -20 -20 -20 -20 -20
-20 -20 -20 -20 -20 -20 -20 -20 -20 -20 -20 -20 -20 -20 -20 -20 -20 -20 -20 -20 -20 -20 -20 -20 -20 -20 -20 -20 -20 -20 -20 -20 -20 -20 -20 -20 -20 -20 -20 -20 -20 -20 -20 -20
-20 -20 -20 -20 -20 -20 -20 -20 -20 -20 -20 -20 -20 -20 -20 -20 -20 -20 -20 -20 -20 -20 -20 -20 -20 -20 -20 -20 -20 -20 -20 -20 -20 -20 -20 -20 -20 -20 -20 -20 -20 -20 -20 -20
-20 -20 -20 -20 -20 -20 -20 -20 -20 -20 -20 -20 -20 -20 -20 -20 -20 -20 -20 -20 -20 -20 -20 -20 -20 -20 -20 -20 -20 -20 -20 -20 -20 -20 -20 -20 -20 -20 -20 -20 -20 -20 -20 -20
-20 -20 -20 -20 -20 -20 -20 -20 -20 -20 -20 -20 -20 -20 -20 -20 -20 -20 -20 -20 -20 -20 -20 -20 -20 -20 -20 -20 -20 -20 -20 -20 -20 -20 -20 -20 -20 -20 -20 -20 -20 -20 -20 -20
-20 -20 -20 -20 -20 -20 -20 -20 -20 -20 -20 -20 -20 -20 -20 -20 -20 -20 -20 -20 -20 -20 -20 -20 -20 -20 -20 -20 -20 -20 -20 -20 -20 -20 -20 -20 -20 -20 -20 -20 -20 -20 -20 -20
-20 -20 -20 -20 -20 -20 -20 -20 -20 -20 -20 -20 -20 -20 -20 -20 -20 -20 -20 -20 -20 -20 -20 -20 -20 -20 -20 -20 -20 -20 -20 -20 -20 -20 -20 -20 -20 -20 -20 -20 -20 -20 -20 -20
-20 -20 -20 -20 -20 -20 -20 -20 -20 -20 -20 -20 -20 -20 -20 -20 -20 -20 -20 -20 -20 -20 -20 -20 -20 -20 -20 -20 -20 -20 -20 -20 -20 -20 -20 -20 -20 -20 -20 -20 -20 -20 -20 -20
-20 -20 -20 -20 -20 -20 -20 -20 -20 -20 -20 -20 -20 -20 -20 -20 -20 -20 -20 -20 -20 -20 -20 -20 -20 -20 -20 -20 -20 -20 -20 -20 -20 -20 -20 -20 -20 -20 -20 -20 -20 -20 -20 -20
-20 -20 -20 -20 -20 -20 -20 -20 -20 -20 -20 -20 -20 -20 -20 -20 -20 -20 -20 -20 -20 -20 -20 -20 -20 -20 -20 -20 -20 -20 -20 -20 -20 -20 -20 -20 -20 -20 -20 -20 -20 -20 -20 -20
-20 -20 -20 -20 -20 -20 -20 -20 -20 -20 -20 -20 -20 -20 -20 -20 -20 -20 -20 -20 -20 -20 -20 -20 -20 -20 -20 -20 -20 -20 -20 -20 -20 -20 -20 -20 -20 -20 -20 -20 -20 -20 -20 -20
Wind_Speed
8 7 6 5 9 8 11 12 12 14 12 10 7 14 14 13 12 11 10 9 7 6 5 5 5 7 9 11 9 10 11 13 14 13 14 15 17 17 16 19 17 18 18 19
5 7 9 12 14 13 16 15 15 17 21 5 0 9 13 15 14 13 12 11 9 8 7 6 6 8 10 10 9 10 12 13 12 13 14 15 15 17 17 19 19 18 19 19
12 4 3 10 16 18 10 10 10 12 13 7 6 10 15 16 15 14 13 12 10 8 7 6 6 8 10 9 8 10 11 11 12 13 14 14 14 16 18 18 18 20 20 18
5 3 6 4 1 6 13 14 14 11 4 6 2 3 9 12 15 13 13 12 10 8 8 7 8 9 9 9 9 9 11 11 12 12 13 14 15 15 16 16 17 17 19 19
4 7 7 7 5 6 7 4 5 15 8 6 8 7 3 9 10 12 12 11 10 9 7 9 9 9 9 9 9 10 11 11 11 11 12 13 14 14 13 13 15 15 15 18
5 6 6 2 3 4 2 4 0 7 12 13 12 5 4 13 13 13 13 12 11 11 10 9 9 9 10 9 9 8 8 10 11 11 12 12 12 12 12 12 13 12 15 15
10 5 5 4 6 7 1 2 2 6 11 15 7 1 5 16 13 14 14 13 12 11 9 10 9 9 10 9 8 8 8 8 9 10 11 11 11 10 10 10 11 11 13 13
6 4 7 6 4 5 2 1 2 4 9 12 7 9 15 15 16 16 15 14 12 10 9 8 8 9 9 8 7 7 7 7 8 9 8 8 9 8 9 9 10 10 11 10
8 5 2 1 2 2 3 4 4 5 8 11 12 12 15 16 16 15 15 12 11 10 10 8 7 7 9 8 7 7 7 7 8 8 7 7 8 8 7 9 9 9 9 10
1 1 2 4 2 2 2 2 5 6 13 13 12 15 16 16 15 14 13 12 10 10 10 9 7 6 7 7 6 6 7 6 6 6 7 8 5 7 7 7 8 9 9 9
4 4 2 6 5 6 4 6 8 10 10 11 15 15 16 15 14 13 12 11 11 10 9 9 8 7 7 7 7 6 6 5 5 5 5 6 7 6 6 8 9 7 7 7
4 3 2 1 7 7 7 7 10 12 11 11 13 16 14 13 13 13 12 11 10 10 10 9 8 7 6 6 6 6 6 4 4 3 3 4 4 5 12 10 12 12 13 9
2 5 4 6 6 4 6 9 9 10 11 14 12 14 16 14 13 14 13 13 12 11 10 10 9 8 6 6 6 6 5 5 4 3 3 3 3 3 3 5 9 10 11 12
8 9 5 4 5 6 9 9 9 8 9 11 13 12 13 12 13 13 13 12 12 11 10 10 9 8 5 5 6 6 6 6 5 4 3 3 3 3 2 3 3 3 4 7
2 1 2 9 10 10 10 11 11 10 10 11 11 12 12 12 11 11 9 10 10 10 10 9 8 7 4 5 7 6 6 4 4 4 3 3 3 2 2 1 1 2 3 2
7 8 9 11 11 11 10 9 10 9 10 9 10 10 9 9 9 9 10 10 11 9 9 7 8 8 7 7 8 6 5 6 5 4 3 3 2 1 1 1 1 2 3 4
9 5 7 9 10 11 9 8 8 10 9 9 9 9 10 9 8 8 8 7 5 6 7 8 6 6 5 4 6 4 4 4 4 3 3 2 2 2 2 2 3 3 4 3
2 4 7 10 12 9 7 6 6 9 8 8 8 8 7 9 9 8 7 6 5 4 3 4 7 6 4 5 5 4 4 4 3 3 3 3 3 2 3 3 4 4 5 3
5 9 7 10 9 8 7 7 7 6 6 7 8 9 7 5 6 7 7 6 5 6 5 5 10 8 7 6 6 4 4 4 3 2 2 2 3 3 3 4 4 4 4 4
7 7 9 9 8 7 7 5 6 6 5 6 6 6 5 5 6 8 7 7 5 2 8 9 9 7 6 6 6 4 4 3 2 2 2 2 3 3 3 3 4 3 3 4
6 6 7 7 5 4 5 6 7 7 6 7 8 8 7 6 5 7 7 5 6 4 7 9 7 6 6 6 5 4 3 3 2 2 2 2 2 2 2 3 3 4 5 5
4 5 5 6 6 5 2 4 5 6 7 6 5 6 7 7 6 4 0 2 5 8 7 6 6 7 6 7 4 3 3 2 1 0 1 1 2 2 3 3 4 5 5 5
5 5 5 5 6 6 5 4 3 5 6 6 6 7 6 5 6 6 5 6 5 8 6 6 7 8 7 4 3 3 3 2 2 3 3 3 3 3 3 4 4 5 5 6
5 5 5 5 7 6 6 3 4 4 4 5 4 5 8 6 4 1 2 8 9 10 6 6 6 7 5 3 4 4 4 4 4 4 4 4 4 3 3 4 4 5 5 5
6 5 5 5 6 5 7 6 7 6 7 7 6 6 5 3 2 5 5 6 11 8 7 8 9 9 5 5 5 6 5 4 4 4 4 4 3 3 3 4 4 5 5 5
6 5 4 4 5 5 5 5 5 5 5 6 5 4 5 4 7 7 8 9 9 9 7 6 6 6 7 6 6 6 5 5 4 4 4 3 3 3 4 4 4 5 5 5
6 5 5 4 3 4 4 4 5 5 4 5 7 5 6 7 8 9 10 8 8 8 7 7 6 7 6 6 6 6 5 5 5 4 3 3 3 3 4 4 4 5 5 5
Wind_Direction
256 249 217 249 249 228 237 241 235 269 259 266 209 209 186 177 157 155 160 161 152 129 104 86 61 57 55 49 41 51 48 44 42 37 37 37 33 35 32 33 31 37 32 34
270 257 228 248 245 238 239 246 255 255 267 277 100 140 163 176 167 170 169 164 152 134 116 94 73 67 64 53 40 57 55 53 45 43 42 41 40 40 39 37 42 39 40 41
267 214 233 270 242 226 224 227 238 243 248 178 188 186 182 174 176 173 167 162 152 133 120 110 94 78 71 66 56 54 60 55 54 47 43 44 44 43 43 40 38 42 42 41
288 173 237 246 212 218 222 246 230 245 202 183 172 140 169 175 170 166 160 157 146 140 129 122 112 92 86 72 66 60 59 57 54 53 51 47 46 47 48 43 42 42 41 36
241 248 311 282 187 191 197 283 235 233 161 131 124 123 140 170 166 154 155 150 147 146 144 131 117 109 98 82 72 66 58 57 55 55 56 53 50 45 48 54 52 50 47 46
217 244 244 226 196 164 166 269 141 171 167 156 156 189 185 169 147 140 143 145 147 151 141 126 124 118 105 96 85 71 65 67 61 59 58 52 52 48 49 49 54 54 50 45
231 245 255 228 172 142 222 355 150 170 165 166 187 33 134 141 142 143 147 147 145 149 140 131 130 124 112 109 100 96 87 79 79 75 64 57 53 52 52 48 51 46 49 44
199 235 262 146 129 198 107 87 151 151 167 171 119 124 144 140 143 147 149 151 149 142 138 136 134 128 122 117 120 112 102 90 83 76 72 67 63 62 53 52 54 55 51 51
199 218 70 156 61 111 149 145 179 167 165 155 139 148 151 149 152 154 154 154 152 143 136 136 140 139 132 131 131 120 108 97 86 79 72 74 63 56 51 48 45 45 46 46
192 186 206 183 127 144 169 145 153 157 158 155 149 155 155 154 155 156 155 153 147 145 142 138 141 138 134 141 138 128 111 99 91 83 76 65 68 60 50 43 43 40 37 40
244 234 236 216 196 166 135 125 125 137 153 156 150 160 159 158 159 157 153 151 155 157 156 152 149 144 146 149 148 133 119 108 95 83 79 80 62 54 57 53 48 46 45 35
220 186 121 116 166 147 148 155 149 145 146 159 162 159 162 161 160 158 157 157 160 160 157 157 157 150 152 160 157 146 133 122 102 93 79 78 84 81 56 57 54 55 44 49
159 119 72 95 111 128 132 143 148 155 158 157 163 163 162 157 162 161 159 163 166 166 158 161 156 151 146 150 156 149 140 137 125 114 108 106 89 78 83 62 50 44 45 38
117 117 89 177 161 141 133 131 131 134 146 154 158 158 154 156 156 166 172 171 160 154 161 164 160 154 149 150 144 133 127 123 126 117 118 117 110 110 85 66 46 34 20 24
75 17 113 120 125 122 121 129 131 139 144 148 157 156 159 161 168 170 160 159 154 156 159 164 164 158 156 150 139 140 140 142 138 134 141 140 143 130 106 125 36 1 347 6
96 100 117 137 137 136 138 141 137 150 156 150 154 158 158 154 151 150 154 159 162 176 170 159 163 163 169 168 157 154 152 151 158 155 155 160 172 171 179 261 295 322 326 348
120 125 137 146 156 158 171 163 159 157 157 164 158 145 146 143 143 151 161 166 144 154 163 165 163 146 142 145 161 153 151 157 171 177 184 182 197 233 256 275 300 307 311 327
114 146 162 160 159 157 153 151 149 160 167 160 140 133 137 158 172 168 155 127 109 106 138 132 133 134 136 149 157 156 162 159 176 197 198 216 235 266 276 288 297 301 315 326
113 126 135 145 155 153 151 158 164 156 132 139 145 171 169 159 153 142 140 140 148 161 172 154 155 150 154 160 157 152 158 168 181 201 243 244 243 265 284 288 297 306 320 326
115 113 125 130 138 145 147 138 139 136 136 130 113 132 160 163 149 147 155 175 178 147 150 163 163 167 164 168 160 153 150 148 174 195 214 242 268 296 313 330 340 351 355 349
133 134 127 129 121 102 129 138 140 151 159 152 165 178 171 145 146 136 150 188 182 169 168 158 170 171 176 168 175 172 163 167 182 208 262 306 316 350 26 30 17 5 351 345
124 123 129 130 127 114 109 133 129 127 143 144 126 130 135 147 149 155 130 181 147 157 153 168 176 175 175 177 188 188 180 187 182 264 357 56 55 44 32 12 2 353 346 341
109 118 120 125 129 124 107 92 132 143 149 156 157 159 164 159 164 162 180 180 152 163 157 161 163 165 161 170 162 156 146 104 80 86 80 65 57 39 20 10 356 349 343 339
100 90 101 110 117 118 114 95 110 109 115 132 134 142 145 141 144 154 94 135 138 152 146 142 139 133 132 124 124 108 99 94 90 84 85 68 55 39 23 5 351 344 336 331
92 98 106 119 116 109 122 126 112 111 114 111 117 129 128 127 134 144 131 126 133 128 110 102 113 114 105 103 100 97 92 83 80 84 74 62 47 26 7 358 347 341 333 330
100 92 88 85 111 126 131 139 123 130 128 118 111 118 111 92 107 112 113 115 113 112 109 109 103 98 98 97 95 92 93 95 85 73 68 55 26 12 359 349 340 336 332 326
98 108 107 98 92 115 123 125 134 139 135 133 121 119 119 119 110 112 114 111 106 101 98 94 89 88 95 96 94 93 91 87 69 72 54 29 15 7 353 337 330 326 321 321